Temperature
14 14 14 14 13 13 13 13 13 13 12 12 12 12 12 11 11 10 10 10 10 10 9 9 9 9 9 9 9 9 9 9 8 8 8 8 8 8 8 8 8 8 8
13 13 13 13 13 13 13 13 12 12 12 12 12 11 11 11 10 10 10 10 9 9 9 9 9 9 8 8 8 8 8 8 8 8 8 8 8 8 8 8 8 8 8
13 13 13 13 13 13 12 12 12 12 12 12 11 11 11 10 10 10 9 9 9 9 9 9 9 8 8 8 8 8 8 7 7 7 7 7 7 7 7 7 7 7 7
12 12 12 12 12 12 12 12 12 11 11 11 11 11 10 10 9 9 9 9 9 9 9 9 8 8 8 8 8 7 7 7 7 7 7 7 7 7 6 6 7 7 7
12 12 12 12 12 12 12 11 11 11 11 11 11 10 10 9 9 9 9 8 8 8 8 8 8 8 8 8 7 7 7 7 7 6 6 6 6 6 6 6 6 6 6
11 12 12 11 11 11 11 11 11 11 10 10 10 10 9 9 9 8 8 8 8 8 8 8 8 8 7 7 7 7 7 6 6 6 6 6 6 6 5 5 5 5 5
11 11 11 11 11 11 11 11 10 10 10 10 10 9 9 9 8 8 8 8 8 8 7 7 7 7 7 7 7 7 7 6 6 5 5 5 5 5 5 5 5 5 5
11 11 11 11 11 11 10 10 10 10 9 9 9 9 8 8 8 8 8 8 7 7 7 7 7 7 7 7 6 6 6 6 6 5 5 5 4 4 5 4 5 5 5
10 10 10 10 10 10 10 10 9 9 9 9 9 8 8 8 8 8 8 7 7 7 7 7 7 6 6 6 6 6 6 6 5 5 4 4 4 4 4 4 4 4 4
10 10 10 10 10 10 10 9 9 9 9 9 8 8 8 7 7 7 7 7 7 7 7 6 6 6 6 6 5 5 5 5 5 4 4 4 4 4 4 4 4 4 4
9 9 9 9 9 9 9 9 9 9 8 8 8 8 8 7 7 6 6 7 7 7 6 6 6 6 5 5 5 5 5 5 4 4 4 4 3 3 3 3 3 3 3
9 9 9 9 9 9 9 8 8 8 8 8 8 7 7 7 7 6 6 6 6 7 6 6 5 5 5 5 5 5 4 4 4 4 3 3 3 3 3 3 3 3 3
9 9 9 9 8 8 8 8 8 8 8 8 7 7 7 7 6 6 6 5 5 6 6 5 5 5 4 4 4 4 4 4 4 3 3 3 3 3 3 3 3 2 3
9 8 8 8 8 8 8 7 7 7 7 7 7 7 6 6 6 6 5 5 4 4 5 5 4 4 4 4 4 4 4 4 3 3 3 3 3 2 2 2 2 2 2
8 8 8 8 7 7 7 7 7 7 7 7 6 6 6 6 5 5 5 4 4 3 3 4 4 4 4 3 3 3 3 3 3 3 3 2 2 2 2 2 2 2 2
7 7 7 7 7 7 7 6 6 6 6 6 6 6 5 5 5 5 4 4 3 3 2 3 3 3 3 3 3 3 3 3 3 2 2 2 2 2 2 1 1 1 1
7 7 7 6 6 6 6 6 6 6 6 6 5 5 5 5 4 4 4 4 3 2 2 3 3 3 3 3 3 3 2 2 2 2 2 2 2 1 1 1 1 1 1
6 6 6 6 6 6 6 5 5 5 5 5 5 5 4 4 4 4 3 3 3 2 2 2 3 3 3 2 2 2 2 2 2 2 2 1 1 1 1 1 1 0 0
6 6 6 5 5 5 5 5 5 5 5 5 4 4 4 4 4 3 3 3 2 2 2 2 2 2 2 2 2 2 2 2 1 1 1 1 1 1 1 1 0 0 0
5 5 5 5 5 5 5 4 4 4 4 4 4 4 4 3 3 3 3 2 2 2 1 1 1 1 1 1 1 1 1 1 1 1 1 1 1 0 0 0 0 0 0
4 5 4 4 4 4 4 4 4 4 4 4 3 3 3 3 2 2 2 2 2 1 1 1 0 0 0 -0 -0 -0 -0 0 1 1 1 1 0 0 0 0 0 -0 -0
4 4 4 4 4 4 4 3 3 3 3 3 3 3 3 2 2 2 1 1 1 1 0 0 -0 -1 -1 -1 -1 -1 -1 -1 -1 -0 -0 0 0 0 0 -0 -0 -0 -0
3 3 3 3 3 3 3 3 3 3 3 3 3 2 2 2 2 1 1 1 1 1 0 -0 -0 -1 -1 -1 -1 -1 -1 -1 -1 -1 -1 -0 -0 -0 0 -0 -1 -1 -1
3 3 3 3 3 3 3 2 2 2 2 2 2 2 2 2 1 1 1 1 1 1 0 -0 -0 -0 -1 -1 -1 -2 -2 -2 -1 -1 -2 -2 -1 -1 0 -0 -1 -1 -1
2 2 2 2 2 2 2 2 2 2 2 1 1 1 1 1 1 1 0 0 1 0 0 0 -0 -0 -1 -1 -2 -2 -2 -2 -2 -2 -2 -2 -2 -2 -1 -0 -1 -1 -1
2 2 2 2 2 2 1 1 1 1 1 1 1 1 1 1 0 0 0 -0 0 0 0 0 -0 -0 -1 -1 -2 -2 -2 -3 -3 -3 -3 -3 -3 -3 -3 -1 -1 -1 -1
Wind_Speed
5 6 5 6 6 6 6 5 5 5 5 5 5 6 5 5 6 6 7 9 9 9 9 10 9 9 10 10 11 11 12 12 13 13 14 14 14 14 14 14 15 16 16
7 6 5 5 5 5 5 5 5 4 4 4 4 5 5 5 6 6 7 8 9 10 10 9 10 10 10 10 11 12 12 13 13 14 14 14 14 15 15 15 16 16 17
8 7 5 4 4 5 6 6 5 5 4 4 3 3 4 4 5 5 7 8 8 9 10 10 10 10 10 11 12 12 12 13 13 14 14 15 15 15 15 16 16 17 18
9 7 5 3 5 6 5 4 3 3 3 3 2 2 3 4 4 5 6 7 8 8 9 10 10 10 11 11 12 13 13 13 14 14 15 15 16 16 16 17 17 18 18
9 8 5 4 6 5 4 3 3 2 2 2 2 2 3 3 3 4 5 6 7 7 8 8 9 10 11 12 13 13 14 14 14 15 15 16 16 17 17 18 19 19 20
8 8 6 5 6 4 3 3 3 3 2 2 2 3 3 2 2 2 3 4 6 7 7 7 8 8 11 13 14 14 14 14 15 16 16 16 17 17 18 19 19 20 20
8 7 5 5 4 3 3 4 3 3 3 2 2 2 3 2 2 1 2 3 4 5 6 6 6 7 8 12 14 14 15 15 15 16 17 17 18 18 19 19 20 20 21
7 7 6 4 4 4 4 3 3 2 2 2 2 2 2 3 2 2 2 1 2 4 4 5 5 6 8 10 12 15 16 16 16 17 17 18 18 19 20 20 20 21 21
6 6 6 5 4 4 4 4 4 4 3 1 2 3 2 2 2 2 2 2 2 2 3 4 4 6 8 10 11 14 16 17 17 17 18 18 19 19 20 20 21 21 21
5 5 6 6 5 4 4 4 3 3 4 2 1 2 2 2 1 2 3 2 3 2 3 3 4 5 8 9 11 14 16 17 17 18 18 18 19 20 20 20 21 21 21
3 5 5 5 4 3 3 4 3 3 3 3 2 1 2 2 1 1 3 4 3 3 2 3 3 4 7 10 11 14 16 17 18 19 18 18 19 20 20 21 21 21 21
2 3 5 4 4 3 4 3 3 4 3 3 2 2 2 2 1 1 2 3 4 3 3 3 2 3 7 10 12 15 16 17 18 19 19 18 19 20 20 21 21 21 21
3 4 4 4 4 4 4 4 3 3 3 4 3 2 2 1 2 2 1 2 3 3 3 2 2 3 7 11 12 16 16 17 18 18 19 19 19 19 20 20 21 21 21
4 4 4 4 4 5 5 4 3 3 3 3 3 2 2 1 1 1 2 1 2 3 3 4 2 3 8 11 13 15 14 17 18 18 18 18 18 19 19 20 20 20 21
3 4 5 4 4 4 5 5 3 3 3 3 2 2 1 1 1 1 1 1 1 2 4 3 3 3 10 11 14 13 14 16 18 18 18 18 18 19 19 19 19 20 21
4 5 5 4 4 4 4 4 3 3 3 2 2 2 1 1 1 0 0 0 1 2 3 3 4 6 9 11 14 14 14 17 17 18 18 18 18 19 19 19 19 20 21
5 5 5 5 5 5 4 4 4 4 4 3 2 2 1 1 1 0 0 0 0 1 4 5 4 5 6 7 11 13 14 13 14 17 18 18 18 18 19 19 19 20 20
4 5 5 5 5 5 5 5 4 4 4 3 2 2 1 1 1 0 0 1 1 2 3 6 5 5 6 7 8 9 11 13 13 16 17 18 18 19 19 19 19 19 20
4 5 5 5 5 5 5 4 4 4 3 3 3 2 1 1 0 1 1 1 2 2 2 3 5 5 5 6 8 8 9 9 12 14 15 16 18 19 19 19 19 19 20
5 5 5 5 4 5 5 4 4 4 3 2 2 2 2 2 2 1 1 1 2 2 3 3 5 5 5 6 6 8 9 8 9 10 12 15 18 19 19 19 19 19 20
5 5 5 4 4 4 4 5 4 4 4 2 1 1 1 1 1 1 1 2 1 2 3 4 5 5 6 7 7 7 9 10 8 5 7 9 11 10 13 17 18 19 20
4 5 5 5 4 3 5 7 6 4 3 3 1 0 0 0 1 2 3 3 3 3 3 4 4 6 7 7 7 7 8 9 7 4 8 10 7 8 9 11 17 20 20
4 4 4 4 3 3 5 5 6 4 3 2 2 1 0 1 2 2 3 4 4 5 5 4 5 6 7 7 7 7 7 8 8 7 7 8 6 8 9 14 18 18 19
3 4 3 3 3 3 4 5 5 4 3 2 1 2 1 1 2 2 1 2 3 4 5 4 4 5 6 5 5 6 7 7 7 5 4 5 6 7 10 11 15 16 19
3 3 3 3 3 2 3 4 4 4 2 1 1 0 0 1 2 3 2 2 4 4 7 7 7 8 9 9 8 4 6 7 8 6 3 3 5 8 7 6 10 16 18
3 3 3 3 3 2 3 3 3 3 3 1 1 0 1 2 3 3 1 1 3 4 5 6 7 8 7 8 9 5 4 5 6 5 3 5 5 6 6 4 5 10 12
Wind_Direction
123 113 101 96 93 94 91 84 82 78 74 71 74 79 75 67 65 59 48 46 45 44 42 35 31 27 22 17 14 7 2 358 355 352 348 343 339 337 336 335 333 331 328
131 124 113 103 97 99 100 97 93 89 80 78 72 72 76 74 71 65 54 47 43 41 35 30 28 24 18 15 8 2 356 350 348 345 345 343 339 335 333 332 330 328 326
138 131 124 113 109 111 104 95 85 80 79 72 69 68 72 71 71 65 56 49 44 40 34 31 26 20 15 10 3 357 352 347 345 343 341 340 339 336 334 331 328 326 325
143 132 126 123 122 115 105 103 93 78 68 68 65 54 60 62 61 61 57 51 44 38 31 28 25 20 14 6 359 353 349 345 342 340 338 336 334 334 333 331 329 326 324
146 137 132 127 125 109 102 105 89 95 87 65 64 56 43 49 49 57 53 45 39 35 28 23 22 18 11 2 355 350 345 341 338 337 336 333 331 331 329 328 327 325 324
148 139 129 127 124 114 105 100 99 76 88 83 72 51 28 26 42 48 42 36 31 25 21 19 18 9 3 359 352 346 342 339 337 336 335 333 331 329 328 326 325 324 322
148 143 136 132 129 131 131 124 112 92 63 58 74 36 10 21 33 24 30 32 22 12 13 13 11 5 357 355 351 346 345 340 338 337 335 332 329 328 326 325 324 323 322
152 155 148 147 140 135 127 126 120 105 73 50 97 94 10 345 348 2 358 4 358 2 4 359 1 1 358 354 348 349 345 343 338 335 333 330 328 326 325 324 323 323 322
154 151 151 146 149 150 154 153 142 129 133 57 60 116 129 239 300 319 323 341 341 340 339 345 355 357 358 354 348 345 344 341 337 333 330 329 328 326 325 324 324 324 324
156 153 150 147 151 153 157 162 150 142 142 147 76 51 105 148 154 310 312 317 323 311 310 333 339 346 352 350 344 342 342 341 337 333 330 329 328 327 327 326 325 325 324
160 158 155 150 149 150 152 149 143 142 146 150 147 129 91 66 92 171 287 313 323 301 300 303 317 335 343 344 339 338 341 340 338 335 332 329 328 328 328 327 326 325 324
175 167 158 152 153 149 153 156 151 150 145 137 137 135 139 143 168 174 248 295 304 302 307 298 305 326 340 342 337 338 338 337 335 335 335 330 327 328 327 327 326 325 325
192 192 171 163 158 153 150 144 144 150 148 143 148 150 145 153 158 168 199 280 294 299 306 306 293 327 342 340 335 337 334 333 332 333 333 333 329 327 328 328 327 327 328
193 179 171 164 158 150 145 139 141 150 142 137 137 136 136 143 150 163 171 211 311 305 298 296 312 311 337 333 333 334 330 329 330 332 332 333 334 333 331 331 330 330 329
169 161 160 157 150 146 143 142 153 153 144 141 144 135 123 124 130 142 163 176 190 290 290 293 306 313 330 329 329 330 326 325 330 332 333 333 333 332 332 331 331 330 328
160 155 154 153 145 139 140 142 147 147 141 142 142 130 112 117 117 92 144 196 208 233 275 286 289 306 318 324 329 328 323 327 329 331 332 332 333 333 332 332 333 331 329
160 161 158 154 151 148 144 146 153 155 150 141 134 136 131 119 113 61 56 330 290 249 273 294 292 306 308 320 328 328 327 325 326 330 330 332 333 333 333 333 332 331 329
162 157 151 150 152 149 148 152 156 159 159 157 150 140 142 111 97 20 281 278 275 264 265 295 305 312 312 318 321 322 328 327 324 326 329 332 332 332 332 332 333 332 331
155 147 145 151 151 151 150 151 154 154 160 164 164 164 176 161 224 280 277 283 290 301 280 287 305 312 315 324 327 324 323 321 325 327 329 331 332 332 332 333 334 334 332
154 149 146 147 149 150 152 154 152 150 147 153 166 172 187 196 223 246 272 278 296 310 313 310 312 320 320 323 328 331 330 329 325 325 328 329 329 331 332 331 332 333 334
151 144 138 137 138 151 160 159 156 151 147 145 143 165 214 218 267 288 312 288 306 318 321 322 319 324 325 332 331 326 324 324 318 316 325 323 324 323 326 328 331 333 336
137 136 139 142 148 163 169 163 150 149 148 149 148 119 254 274 315 317 313 313 322 319 313 312 311 315 313 316 318 323 324 329 325 328 330 319 318 317 321 325 328 333 337
134 134 138 142 151 170 170 164 151 139 141 157 161 155 328 310 339 299 311 334 325 319 309 296 294 298 299 305 313 317 319 316 305 310 322 311 315 315 318 323 328 334 339
144 142 141 142 141 164 167 157 143 122 131 144 165 179 200 282 299 322 349 339 325 317 313 305 282 287 297 303 303 305 303 306 299 299 310 303 313 316 317 317 325 336 341
140 137 140 137 140 160 166 153 126 129 128 133 157 159 203 249 306 353 12 340 333 330 340 338 332 328 330 333 338 337 334 333 325 319 323 309 312 319 311 306 323 335 339
136 130 125 134 143 154 159 154 132 139 139 135 114 208 303 324 336 353 1 331 325 326 337 345 346 344 345 344 347 346 329 327 324 317 327 330 317 329 319 304 315 328 333
Height
1533 1534 1535 1536 1536 1537 1537 1538 1538 1539 1539 1539 1539 1538 1538 1538 1538 1538 1538 1537 1537 1535 1534 1533 1531 1530 1528 1527 1525 1524 1522 1520 1519 1517 1515 1513 1511 1509 1507 1505 1503 1502 1499
1531 1532 1533 1534 1535 1536 1536 1537 1537 1537 1538 1538 1538 1538 1538 1538 1537 1537 1537 1536 1536 1534 1533 1532 1530 1529 1527 1525 1524 1522 1520 1518 1516 1514 1512 1510 1508 1506 1504 1502 1500 1498 1496
1530 1531 1532 1533 1533 1534 1535 1535 1536 1536 1537 1537 1537 1537 1537 1537 1537 1536 1536 1535 1535 1533 1532 1531 1529 1527 1526 1524 1522 1520 1518 1516 1514 1512 1509 1507 1505 1502 1500 1498 1496 1494 1492
1528 1529 1530 1531 1532 1533 1533 1534 1534 1535 1535 1535 1535 1535 1536 1536 1536 1536 1535 1534 1533 1532 1531 1529 1528 1526 1524 1522 1520 1518 1516 1513 1511 1509 1507 1504 1502 1499 1497 1494 1492 1490 1487
1526 1527 1528 1529 1530 1531 1532 1532 1533 1533 1534 1534 1534 1534 1534 1535 1534 1534 1534 1533 1532 1531 1530 1528 1526 1524 1522 1520 1518 1515 1513 1511 1508 1506 1503 1501 1499 1496 1493 1491 1488 1485 1483
1524 1525 1526 1527 1528 1529 1530 1530 1531 1532 1532 1532 1532 1533 1533 1533 1533 1533 1533 1532 1531 1530 1528 1527 1525 1523 1520 1518 1515 1513 1510 1508 1505 1503 1500 1498 1495 1492 1490 1487 1484 1481 1478
1521 1523 1524 1525 1526 1527 1528 1529 1530 1530 1530 1531 1531 1531 1532 1532 1532 1531 1531 1530 1529 1528 1526 1525 1523 1521 1518 1516 1513 1510 1507 1505 1502 1499 1497 1494 1491 1488 1485 1483 1480 1477 1474
1518 1520 1522 1523 1524 1525 1526 1527 1528 1528 1528 1529 1529 1529 1530 1531 1530 1530 1529 1528 1527 1526 1524 1523 1521 1518 1516 1513 1510 1507 1504 1501 1498 1496 1493 1490 1487 1484 1481 1478 1475 1472 1469
1516 1518 1519 1520 1522 1523 1523 1525 1526 1526 1527 1527 1528 1529 1529 1528 1528 1527 1527 1526 1525 1524 1522 1521 1518 1516 1513 1511 1508 1505 1501 1498 1495 1492 1489 1486 1483 1480 1477 1474 1471 1467 1464
1514 1515 1517 1518 1519 1520 1521 1522 1524 1524 1525 1525 1526 1526 1527 1526 1526 1524 1524 1524 1523 1521 1520 1518 1516 1514 1511 1508 1505 1502 1498 1495 1492 1488 1485 1482 1479 1475 1472 1469 1466 1462 1459
1511 1513 1515 1516 1517 1518 1519 1520 1521 1522 1523 1523 1524 1524 1524 1524 1524 1523 1521 1520 1520 1519 1517 1516 1513 1511 1508 1505 1502 1499 1495 1492 1488 1484 1481 1477 1474 1471 1468 1464 1461 1457 1454
1508 1510 1512 1513 1515 1516 1517 1518 1519 1520 1521 1521 1522 1522 1522 1522 1522 1521 1519 1517 1516 1515 1514 1513 1511 1508 1505 1502 1499 1496 1492 1489 1485 1481 1477 1473 1470 1466 1463 1460 1456 1452 1449
1505 1507 1509 1511 1512 1514 1515 1516 1517 1518 1519 1519 1520 1520 1520 1520 1520 1519 1517 1515 1513 1511 1510 1509 1508 1505 1502 1499 1496 1493 1489 1486 1482 1478 1474 1470 1466 1462 1459 1455 1451 1448 1444
1502 1504 1506 1508 1510 1511 1512 1514 1515 1516 1516 1517 1517 1517 1517 1517 1517 1517 1516 1514 1511 1509 1507 1506 1504 1502 1500 1497 1493 1490 1486 1483 1479 1474 1471 1467 1462 1458 1455 1451 1447 1443 1439
1499 1501 1503 1505 1506 1508 1510 1511 1512 1513 1514 1514 1515 1515 1515 1515 1515 1514 1513 1512 1511 1507 1504 1503 1501 1499 1497 1494 1491 1487 1483 1479 1475 1471 1467 1463 1459 1455 1451 1446 1442 1439 1435
1497 1498 1500 1502 1503 1505 1507 1508 1510 1511 1511 1512 1512 1513 1513 1512 1512 1512 1511 1510 1508 1507 1503 1500 1499 1496 1494 1491 1488 1484 1480 1476 1472 1468 1464 1460 1456 1451 1447 1443 1439 1435 1431
1494 1495 1497 1499 1500 1502 1504 1505 1507 1508 1509 1509 1510 1510 1510 1510 1510 1509 1508 1507 1506 1504 1501 1497 1496 1494 1491 1487 1484 1481 1477 1473 1469 1465 1461 1457 1452 1448 1444 1439 1435 1431 1427
1490 1492 1494 1496 1498 1499 1501 1503 1504 1505 1506 1506 1507 1507 1508 1507 1507 1506 1506 1504 1503 1501 1499 1494 1492 1490 1487 1484 1480 1477 1474 1470 1466 1462 1458 1454 1449 1445 1440 1436 1432 1427 1423
1487 1489 1491 1493 1495 1497 1498 1500 1501 1502 1503 1504 1504 1505 1505 1505 1504 1504 1503 1502 1500 1498 1496 1493 1489 1487 1483 1480 1477 1473 1470 1466 1463 1459 1455 1450 1446 1442 1437 1432 1428 1423 1419
1484 1486 1488 1490 1492 1494 1496 1497 1498 1499 1500 1501 1502 1502 1502 1502 1501 1501 1500 1499 1497 1495 1493 1490 1487 1484 1480 1477 1474 1469 1465 1462 1459 1455 1452 1448 1443 1439 1434 1429 1425 1420 1415
1481 1483 1486 1488 1490 1491 1493 1494 1495 1496 1497 1498 1499 1499 1499 1499 1499 1498 1497 1496 1494 1492 1490 1487 1484 1481 1477 1474 1471 1467 1463 1458 1455 1451 1447 1444 1439 1435 1431 1426 1421 1416 1412
1478 1481 1483 1485 1487 1488 1490 1491 1492 1493 1494 1495 1496 1496 1497 1497 1496 1495 1495 1493 1492 1489 1487 1485 1482 1478 1475 1472 1469 1465 1461 1456 1450 1449 1444 1440 1437 1432 1427 1423 1418 1414 1409
1476 1478 1480 1482 1484 1486 1487 1488 1489 1490 1491 1492 1493 1493 1493 1494 1493 1492 1492 1491 1489 1487 1486 1483 1480 1477 1473 1470 1467 1463 1460 1456 1451 1447 1442 1436 1433 1428 1424 1420 1416 1412 1407
1474 1476 1478 1480 1482 1483 1484 1486 1487 1488 1489 1490 1490 1490 1490 1490 1490 1489 1488 1487 1486 1484 1482 1480 1478 1475 1472 1468 1465 1462 1458 1454 1450 1446 1441 1434 1429 1425 1421 1418 1414 1409 1405
1472 1473 1475 1477 1479 1480 1482 1483 1484 1485 1486 1487 1487 1488 1488 1488 1487 1486 1485 1484 1482 1481 1480 1478 1475 1473 1470 1467 1464 1460 1455 1451 1446 1442 1439 1434 1428 1422 1417 1414 1411 1407 1402
1469 1471 1473 1475 1476 1478 1479 1480 1482 1483 1483 1484 1485 1485 1485 1485 1485 1484 1482 1481 1479 1478 1476 1474 1472 1470 1467 1464 1462 1458 1454 1450 1445 1440 1437 1433 1428 1422 1415 1411 1409 1405 1400